Precipitable_Water
0.82 0.80 0.77 0.75 0.74 0.72 0.71 0.70 0.68 0.66 0.64 0.62 0.61 0.61 0.61 0.61 0.59 0.57 0.58 0.60 0.61 0.62 0.62 0.61 0.64 0.62 0.61 0.60 0.57 0.54 0.50 0.40 0.35 0.30 0.27 0.28 0.32 0.32 0.33 0.37 0.37 0.39 0.35 0.36 0.33 0.27 0.24 0.24 0.23 0.25 0.22 0.21 0.18 0.19 0.21 0.20 0.22 0.20 0.17 0.16 0.16 0.14 0.13 0.14 0.13 0.13 0.14 0.12 0.15 0.17 0.19 0.17 0.16 0.28 0.67 0.60 0.40 0.34 0.55 0.59 0.79 0.88 0.90 1.09 1.16 1.19 1.24 1.31
0.82 0.81 0.80 0.77 0.76 0.75 0.74 0.73 0.72 0.70 0.68 0.65 0.63 0.62 0.61 0.60 0.59 0.59 0.59 0.58 0.58 0.58 0.60 0.62 0.61 0.61 0.61 0.59 0.59 0.56 0.46 0.39 0.30 0.29 0.25 0.32 0.35 0.38 0.42 0.42 0.44 0.43 0.40 0.31 0.27 0.23 0.24 0.23 0.24 0.22 0.20 0.17 0.22 0.15 0.22 0.16 0.21 0.16 0.16 0.16 0.15 0.17 0.17 0.19 0.16 0.15 0.13 0.12 0.16 0.19 0.21 0.18 0.18 0.26 0.69 0.51 0.38 0.44 0.55 0.62 0.64 0.71 0.85 1.01 1.10 1.13 1.17 1.23
0.80 0.81 0.80 0.79 0.78 0.77 0.77 0.76 0.75 0.73 0.71 0.69 0.68 0.65 0.64 0.62 0.60 0.58 0.58 0.59 0.58 0.58 0.59 0.59 0.61 0.60 0.60 0.61 0.57 0.54 0.46 0.33 0.30 0.23 0.28 0.43 0.42 0.44 0.47 0.50 0.49 0.48 0.40 0.29 0.28 0.24 0.24 0.27 0.26 0.22 0.19 0.15 0.18 0.16 0.19 0.19 0.19 0.16 0.15 0.14 0.15 0.20 0.23 0.21 0.18 0.15 0.14 0.15 0.16 0.19 0.21 0.20 0.20 0.32 0.76 0.54 0.54 0.54 0.50 0.54 0.59 0.67 0.68 0.82 0.98 1.06 1.12 1.15
0.76 0.79 0.81 0.81 0.80 0.79 0.79 0.78 0.78 0.77 0.73 0.72 0.71 0.69 0.67 0.66 0.63 0.60 0.60 0.60 0.58 0.58 0.58 0.59 0.60 0.61 0.61 0.60 0.58 0.52 0.41 0.33 0.23 0.31 0.46 0.43 0.44 0.40 0.41 0.46 0.51 0.51 0.45 0.36 0.31 0.26 0.25 0.27 0.27 0.23 0.20 0.15 0.16 0.18 0.16 0.20 0.16 0.16 0.15 0.15 0.16 0.17 0.21 0.22 0.18 0.17 0.17 0.18 0.19 0.20 0.21 0.20 0.22 0.28 0.30 0.36 0.56 0.46 0.55 0.67 0.60 0.63 0.70 0.80 0.94 1.00 1.06 1.09
0.75 0.75 0.77 0.79 0.80 0.81 0.80 0.80 0.80 0.79 0.78 0.74 0.72 0.71 0.70 0.68 0.66 0.64 0.62 0.62 0.59 0.58 0.58 0.58 0.58 0.61 0.61 0.62 0.54 0.50 0.38 0.21 0.26 0.46 0.50 0.43 0.44 0.39 0.38 0.41 0.51 0.52 0.44 0.38 0.32 0.26 0.24 0.25 0.26 0.23 0.21 0.15 0.16 0.16 0.16 0.20 0.20 0.19 0.17 0.17 0.16 0.24 0.21 0.19 0.23 0.22 0.21 0.21 0.19 0.21 0.20 0.20 0.24 0.23 0.26 0.30 0.46 0.44 0.51 0.77 0.76 0.87 0.89 0.86 0.91 0.98 1.04 1.05
0.71 0.72 0.74 0.76 0.76 0.77 0.78 0.80 0.80 0.79 0.78 0.77 0.75 0.73 0.72 0.70 0.68 0.66 0.65 0.64 0.60 0.58 0.57 0.59 0.59 0.57 0.60 0.61 0.56 0.46 0.33 0.14 0.45 0.50 0.54 0.45 0.42 0.39 0.37 0.39 0.52 0.53 0.47 0.37 0.26 0.23 0.23 0.24 0.24 0.22 0.20 0.17 0.16 0.14 0.15 0.18 0.22 0.15 0.21 0.19 0.18 0.26 0.18 0.23 0.23 0.22 0.21 0.20 0.20 0.21 0.23 0.23 0.22 0.22 0.23 0.25 0.38 0.73 0.82 0.91 0.89 0.97 0.99 0.97 1.05 1.08 1.02 1.03
0.68 0.69 0.71 0.72 0.74 0.75 0.74 0.76 0.78 0.79 0.79 0.78 0.76 0.75 0.74 0.72 0.69 0.68 0.66 0.64 0.61 0.59 0.58 0.58 0.59 0.60 0.59 0.59 0.54 0.43 0.30 0.28 0.40 0.52 0.57 0.50 0.43 0.39 0.36 0.38 0.56 0.54 0.45 0.30 0.23 0.22 0.21 0.22 0.21 0.20 0.19 0.17 0.18 0.15 0.16 0.17 0.22 0.16 0.14 0.19 0.19 0.23 0.19 0.21 0.22 0.23 0.22 0.20 0.20 0.24 0.25 0.22 0.22 0.20 0.25 0.31 0.34 0.60 0.93 0.93 1.00 0.98 0.99 1.03 0.98 1.03 1.06 1.08
0.65 0.65 0.66 0.68 0.70 0.71 0.72 0.73 0.75 0.76 0.76 0.77 0.77 0.75 0.74 0.73 0.72 0.69 0.67 0.64 0.61 0.59 0.58 0.57 0.57 0.56 0.59 0.51 0.41 0.34 0.33 0.28 0.38 0.42 0.47 0.49 0.46 0.41 0.36 0.36 0.45 0.59 0.41 0.26 0.21 0.20 0.20 0.19 0.18 0.20 0.18 0.16 0.17 0.16 0.18 0.18 0.20 0.15 0.13 0.19 0.22 0.21 0.21 0.21 0.22 0.21 0.21 0.21 0.22 0.24 0.22 0.22 0.22 0.22 0.23 0.27 0.44 0.65 0.85 0.91 0.95 0.93 0.93 0.98 1.00 1.01 1.04 1.07
0.63 0.64 0.63 0.64 0.66 0.67 0.69 0.70 0.71 0.74 0.74 0.75 0.77 0.76 0.74 0.73 0.72 0.70 0.67 0.65 0.63 0.59 0.58 0.57 0.57 0.57 0.59 0.51 0.39 0.31 0.27 0.36 0.42 0.42 0.42 0.44 0.44 0.42 0.38 0.32 0.42 0.47 0.39 0.31 0.23 0.20 0.19 0.18 0.19 0.19 0.16 0.17 0.18 0.17 0.19 0.17 0.15 0.17 0.16 0.17 0.21 0.21 0.22 0.22 0.22 0.21 0.20 0.20 0.22 0.22 0.22 0.23 0.23 0.28 0.27 0.31 0.65 0.81 0.89 0.91 0.95 0.90 0.91 0.93 0.99 1.05 1.04 1.04
0.59 0.61 0.62 0.63 0.63 0.64 0.66 0.66 0.68 0.70 0.72 0.72 0.74 0.77 0.77 0.75 0.72 0.70 0.68 0.66 0.63 0.61 0.57 0.57 0.57 0.56 0.52 0.43 0.38 0.25 0.34 0.41 0.44 0.47 0.45 0.43 0.43 0.40 0.37 0.35 0.35 0.44 0.38 0.33 0.27 0.20 0.18 0.19 0.19 0.21 0.19 0.18 0.19 0.16 0.18 0.17 0.15 0.21 0.17 0.18 0.20 0.19 0.20 0.22 0.21 0.21 0.22 0.20 0.21 0.20 0.22 0.22 0.32 0.30 0.30 0.57 0.78 0.88 0.91 0.93 0.98 0.93 0.89 0.93 0.99 1.05 1.09 1.09
0.55 0.55 0.58 0.60 0.61 0.62 0.63 0.64 0.65 0.67 0.70 0.71 0.71 0.72 0.75 0.76 0.74 0.72 0.70 0.67 0.65 0.61 0.58 0.55 0.57 0.51 0.43 0.48 0.32 0.24 0.43 0.38 0.44 0.46 0.44 0.42 0.41 0.37 0.34 0.35 0.35 0.34 0.37 0.36 0.28 0.23 0.20 0.21 0.22 0.22 0.19 0.16 0.18 0.16 0.17 0.17 0.17 0.19 0.19 0.18 0.17 0.18 0.20 0.21 0.21 0.20 0.22 0.18 0.20 0.22 0.22 0.22 0.23 0.36 0.41 0.69 0.93 0.92 0.88 0.91 0.92 0.90 0.91 0.93 0.99 1.04 1.11 1.13
0.48 0.51 0.53 0.55 0.58 0.61 0.62 0.63 0.64 0.64 0.66 0.68 0.70 0.70 0.72 0.74 0.74 0.72 0.71 0.70 0.68 0.63 0.57 0.54 0.54 0.52 0.45 0.39 0.33 0.28 0.45 0.46 0.44 0.45 0.44 0.41 0.37 0.39 0.37 0.36 0.36 0.35 0.33 0.33 0.31 0.26 0.22 0.21 0.22 0.21 0.15 0.19 0.15 0.17 0.17 0.19 0.18 0.17 0.18 0.13 0.15 0.16 0.16 0.17 0.16 0.17 0.19 0.19 0.21 0.23 0.21 0.19 0.21 0.27 0.41 0.75 0.87 0.96 0.95 0.90 0.88 0.89 0.91 0.95 1.00 1.06 1.10 1.11
0.51 0.47 0.47 0.49 0.53 0.56 0.60 0.61 0.62 0.63 0.64 0.66 0.68 0.69 0.71 0.72 0.72 0.71 0.71 0.70 0.69 0.66 0.61 0.56 0.54 0.50 0.42 0.29 0.32 0.41 0.42 0.38 0.38 0.41 0.41 0.42 0.38 0.38 0.38 0.36 0.37 0.37 0.34 0.32 0.32 0.27 0.23 0.24 0.24 0.20 0.19 0.19 0.16 0.15 0.17 0.19 0.17 0.17 0.16 0.13 0.13 0.15 0.14 0.17 0.17 0.16 0.17 0.19 0.22 0.22 0.15 0.17 0.20 0.29 0.49 0.73 0.79 0.96 0.92 0.91 0.90 0.90 0.92 0.95 1.00 1.04 1.09 1.15
0.55 0.54 0.51 0.48 0.46 0.50 0.55 0.59 0.60 0.61 0.62 0.64 0.67 0.67 0.68 0.70 0.71 0.71 0.70 0.67 0.68 0.65 0.61 0.59 0.55 0.48 0.40 0.29 0.36 0.40 0.44 0.42 0.41 0.37 0.36 0.38 0.36 0.33 0.35 0.36 0.37 0.37 0.37 0.34 0.34 0.32 0.25 0.25 0.24 0.22 0.23 0.18 0.17 0.20 0.17 0.17 0.17 0.13 0.14 0.14 0.12 0.12 0.12 0.16 0.17 0.17 0.15 0.19 0.21 0.22 0.16 0.18 0.21 0.34 0.48 0.70 0.78 0.87 0.85 0.83 0.87 0.88 0.90 0.94 0.98 1.03 1.07 1.13
0.58 0.56 0.55 0.54 0.51 0.46 0.48 0.55 0.59 0.60 0.62 0.62 0.64 0.64 0.66 0.67 0.69 0.70 0.69 0.67 0.65 0.61 0.57 0.59 0.54 0.42 0.33 0.31 0.40 0.40 0.42 0.44 0.36 0.32 0.36 0.35 0.35 0.31 0.30 0.32 0.34 0.36 0.38 0.37 0.33 0.31 0.26 0.24 0.23 0.22 0.19 0.21 0.20 0.17 0.15 0.15 0.15 0.14 0.12 0.11 0.12 0.11 0.12 0.17 0.19 0.18 0.13 0.17 0.21 0.21 0.16 0.20 0.24 0.33 0.48 0.67 0.78 0.86 0.83 0.85 0.87 0.88 0.90 0.93 0.97 1.02 1.07 1.12
0.58 0.59 0.58 0.57 0.56 0.53 0.46 0.48 0.56 0.59 0.60 0.61 0.61 0.63 0.65 0.66 0.67 0.68 0.67 0.64 0.59 0.56 0.56 0.48 0.47 0.42 0.31 0.24 0.30 0.43 0.34 0.31 0.32 0.38 0.40 0.38 0.35 0.30 0.30 0.29 0.32 0.35 0.37 0.37 0.37 0.30 0.26 0.24 0.21 0.21 0.20 0.20 0.17 0.15 0.14 0.14 0.14 0.14 0.12 0.11 0.10 0.11 0.12 0.16 0.18 0.18 0.17 0.19 0.20 0.20 0.17 0.19 0.23 0.42 0.55 0.66 0.78 0.82 0.84 0.86 0.85 0.88 0.89 0.93 0.98 1.01 1.07 1.12
0.57 0.58 0.59 0.59 0.58 0.57 0.53 0.47 0.50 0.57 0.59 0.59 0.61 0.61 0.64 0.65 0.67 0.67 0.65 0.59 0.57 0.60 0.52 0.38 0.43 0.44 0.23 0.40 0.44 0.32 0.30 0.30 0.35 0.35 0.37 0.38 0.36 0.33 0.30 0.27 0.29 0.32 0.35 0.36 0.34 0.28 0.24 0.22 0.23 0.23 0.23 0.18 0.17 0.15 0.13 0.12 0.12 0.12 0.12 0.11 0.12 0.11 0.12 0.13 0.18 0.17 0.17 0.19 0.17 0.20 0.19 0.20 0.35 0.38 0.52 0.66 0.73 0.80 0.84 0.86 0.88 0.88 0.91 0.94 0.99 1.01 1.03 1.06
0.53 0.56 0.57 0.58 0.58 0.58 0.57 0.51 0.48 0.54 0.57 0.58 0.58 0.59 0.58 0.62 0.67 0.63 0.59 0.60 0.57 0.53 0.51 0.48 0.44 0.37 0.28 0.35 0.24 0.26 0.39 0.37 0.34 0.35 0.37 0.41 0.37 0.33 0.30 0.25 0.28 0.31 0.32 0.31 0.32 0.23 0.23 0.19 0.23 0.18 0.20 0.18 0.16 0.14 0.11 0.09 0.11 0.12 0.12 0.11 0.14 0.15 0.13 0.13 0.14 0.16 0.16 0.18 0.18 0.19 0.19 0.19 0.25 0.46 0.48 0.63 0.74 0.74 0.82 0.87 0.88 0.89 0.93 0.95 0.97 0.99 1.01 1.05
0.47 0.51 0.54 0.56 0.57 0.58 0.58 0.56 0.50 0.51 0.55 0.56 0.56 0.59 0.61 0.63 0.61 0.59 0.51 0.49 0.43 0.36 0.26 0.29 0.30 0.17 0.16 0.26 0.32 0.31 0.32 0.38 0.38 0.35 0.33 0.35 0.37 0.34 0.32 0.30 0.28 0.29 0.26 0.25 0.25 0.24 0.22 0.20 0.22 0.18 0.15 0.15 0.15 0.14 0.12 0.13 0.14 0.14 0.14 0.12 0.15 0.12 0.12 0.12 0.15 0.18 0.16 0.15 0.16 0.18 0.18 0.19 0.23 0.41 0.48 0.60 0.69 0.69 0.84 0.94 0.94 0.92 0.94 0.98 0.98 1.00 1.02 1.04
0.48 0.49 0.52 0.54 0.55 0.56 0.57 0.58 0.54 0.51 0.52 0.51 0.51 0.52 0.52 0.44 0.45 0.39 0.49 0.46 0.36 0.30 0.29 0.30 0.35 0.27 0.24 0.25 0.25 0.31 0.35 0.35 0.30 0.34 0.37 0.37 0.35 0.30 0.27 0.26 0.25 0.28 0.26 0.21 0.24 0.24 0.23 0.16 0.14 0.12 0.14 0.16 0.17 0.17 0.16 0.15 0.16 0.16 0.17 0.14 0.13 0.12 0.13 0.14 0.16 0.18 0.18 0.16 0.16 0.18 0.19 0.20 0.22 0.35 0.50 0.59 0.69 0.73 0.80 0.86 0.87 0.91 0.94 0.97 0.99 0.99 1.03 1.05
0.47 0.48 0.49 0.51 0.53 0.54 0.56 0.57 0.56 0.52 0.51 0.50 0.49 0.43 0.32 0.35 0.30 0.27 0.36 0.41 0.44 0.40 0.34 0.29 0.32 0.30 0.26 0.25 0.27 0.27 0.27 0.30 0.31 0.32 0.35 0.43 0.36 0.29 0.22 0.22 0.22 0.21 0.23 0.24 0.23 0.27 0.23 0.16 0.14 0.13 0.16 0.18 0.18 0.18 0.17 0.16 0.16 0.16 0.15 0.13 0.13 0.13 0.13 0.15 0.16 0.17 0.18 0.16 0.16 0.19 0.19 0.20 0.22 0.32 0.46 0.60 0.67 0.65 0.72 0.77 0.86 0.92 0.95 0.96 0.95 0.98 1.03 1.12
0.46 0.46 0.47 0.49 0.51 0.53 0.54 0.55 0.55 0.52 0.49 0.49 0.45 0.38 0.41 0.45 0.50 0.52 0.44 0.29 0.35 0.36 0.34 0.32 0.34 0.32 0.35 0.30 0.29 0.32 0.32 0.26 0.27 0.29 0.37 0.37 0.31 0.22 0.21 0.20 0.19 0.19 0.23 0.24 0.25 0.22 0.19 0.14 0.15 0.16 0.18 0.18 0.18 0.18 0.18 0.17 0.15 0.14 0.13 0.13 0.12 0.13 0.14 0.16 0.16 0.16 0.17 0.16 0.17 0.19 0.18 0.20 0.21 0.32 0.45 0.57 0.63 0.66 0.70 0.73 0.76 0.87 0.94 0.94 0.98 1.01 1.06 1.11
0.46 0.46 0.46 0.47 0.49 0.50 0.50 0.52 0.53 0.52 0.44 0.41 0.38 0.40 0.41 0.53 0.57 0.56 0.50 0.38 0.30 0.32 0.30 0.29 0.27 0.29 0.29 0.32 0.33 0.36 0.25 0.22 0.20 0.24 0.28 0.33 0.30 0.24 0.21 0.18 0.18 0.21 0.22 0.22 0.19 0.19 0.16 0.16 0.18 0.18 0.17 0.17 0.17 0.17 0.17 0.17 0.16 0.15 0.14 0.13 0.11 0.14 0.13 0.13 0.15 0.16 0.17 0.16 0.17 0.18 0.18 0.20 0.22 0.38 0.46 0.56 0.63 0.65 0.70 0.71 0.77 0.94 0.93 0.94 1.00 1.04 1.06 1.05
0.46 0.45 0.45 0.46 0.48 0.48 0.49 0.49 0.51 0.45 0.41 0.41 0.39 0.39 0.54 0.58 0.53 0.52 0.43 0.29 0.24 0.23 0.26 0.27 0.29 0.29 0.25 0.24 0.34 0.32 0.25 0.23 0.24 0.24 0.37 0.31 0.26 0.27 0.23 0.18 0.18 0.20 0.19 0.21 0.22 0.19 0.17 0.18 0.20 0.20 0.19 0.17 0.15 0.16 0.16 0.15 0.14 0.15 0.15 0.13 0.13 0.13 0.14 0.14 0.16 0.15 0.17 0.18 0.20 0.18 0.17 0.19 0.26 0.33 0.45 0.57 0.65 0.64 0.68 0.74 0.84 0.84 0.93 1.03 1.04 1.10 1.08 1.02
0.45 0.45 0.45 0.47 0.47 0.49 0.47 0.48 0.40 0.39 0.46 0.42 0.38 0.49 0.55 0.60 0.58 0.54 0.38 0.29 0.27 0.20 0.34 0.32 0.35 0.32 0.33 0.45 0.43 0.29 0.28 0.27 0.26 0.26 0.31 0.30 0.27 0.26 0.22 0.21 0.19 0.18 0.20 0.23 0.22 0.20 0.19 0.23 0.24 0.21 0.18 0.16 0.15 0.14 0.15 0.15 0.14 0.15 0.15 0.15 0.15 0.15 0.14 0.15 0.17 0.16 0.14 0.16 0.17 0.16 0.14 0.16 0.20 0.23 0.31 0.48 0.55 0.61 0.68 0.66 0.70 0.88 0.75 0.79 0.88 0.91 1.04 1.10
0.47 0.45 0.46 0.48 0.49 0.48 0.50 0.37 0.42 0.46 0.39 0.36 0.45 0.54 0.54 0.58 0.59 0.56 0.37 0.22 0.15 0.19 0.30 0.21 0.37 0.28 0.44 0.33 0.36 0.29 0.33 0.21 0.26 0.26 0.31 0.31 0.33 0.26 0.23 0.19 0.19 0.17 0.21 0.22 0.21 0.21 0.21 0.29 0.25 0.20 0.17 0.15 0.14 0.14 0.14 0.15 0.15 0.14 0.15 0.16 0.16 0.16 0.15 0.14 0.15 0.15 0.13 0.13 0.17 0.18 0.13 0.13 0.19 0.20 0.26 0.37 0.46 0.52 0.61 0.59 0.62 0.67 0.71 0.77 0.78 0.82 0.95 0.97
0.48 0.48 0.47 0.48 0.48 0.49 0.37 0.33 0.44 0.39 0.30 0.37 0.51 0.61 0.59 0.57 0.62 0.52 0.28 0.16 0.13 0.25 0.20 0.32 0.33 0.37 0.40 0.36 0.32 0.32 0.14 0.15 0.26 0.28 0.28 0.32 0.27 0.32 0.21 0.17 0.19 0.21 0.23 0.25 0.22 0.19 0.25 0.28 0.24 0.21 0.18 0.15 0.14 0.13 0.14 0.14 0.14 0.14 0.18 0.16 0.16 0.15 0.14 0.14 0.14 0.13 0.15 0.18 0.22 0.18 0.16 0.15 0.19 0.19 0.25 0.33 0.37 0.44 0.51 0.52 0.53 0.57 0.63 0.69 0.76 0.81 0.85 0.96
0.48 0.48 0.48 0.48 0.49 0.48 0.41 0.40 0.37 0.32 0.34 0.46 0.57 0.62 0.63 0.60 0.60 0.52 0.26 0.10 0.11 0.32 0.23 0.29 0.34 0.48 0.42 0.39 0.36 0.21 0.24 0.30 0.19 0.24 0.29 0.31 0.31 0.27 0.24 0.18 0.17 0.18 0.22 0.23 0.15 0.22 0.25 0.25 0.22 0.19 0.18 0.16 0.14 0.14 0.15 0.15 0.13 0.15 0.18 0.18 0.15 0.15 0.15 0.15 0.14 0.14 0.16 0.18 0.16 0.16 0.16 0.14 0.17 0.22 0.24 0.31 0.32 0.36 0.42 0.46 0.49 0.52 0.55 0.61 0.66 0.71 0.77 0.89
0.49 0.49 0.48 0.49 0.48 0.48 0.47 0.41 0.37 0.33 0.42 0.51 0.57 0.61 0.61 0.63 0.52 0.30 0.20 0.11 0.26 0.27 0.43 0.29 0.49 0.37 0.37 0.42 0.33 0.26 0.25 0.28 0.22 0.25 0.27 0.31 0.31 0.29 0.20 0.22 0.19 0.19 0.23 0.22 0.19 0.24 0.26 0.26 0.23 0.22 0.20 0.17 0.18 0.18 0.16 0.15 0.13 0.16 0.20 0.18 0.16 0.16 0.16 0.16 0.14 0.14 0.15 0.15 0.13 0.15 0.16 0.12 0.13 0.24 0.21 0.29 0.30 0.32 0.35 0.42 0.46 0.49 0.53 0.54 0.57 0.65 0.77 0.91
0.55 0.52 0.50 0.50 0.46 0.44 0.47 0.47 0.39 0.43 0.46 0.52 0.56 0.60 0.63 0.51 0.35 0.18 0.15 0.09 0.39 0.25 0.32 0.35 0.33 0.30 0.36 0.31 0.30 0.29 0.24 0.26 0.31 0.28 0.26 0.24 0.28 0.33 0.28 0.28 0.21 0.20 0.21 0.23 0.23 0.25 0.26 0.30 0.28 0.24 0.21 0.22 0.22 0.22 0.20 0.16 0.14 0.19 0.18 0.16 0.15 0.14 0.14 0.15 0.15 0.15 0.14 0.11 0.11 0.15 0.17 0.14 0.12 0.15 0.17 0.18 0.20 0.29 0.35 0.41 0.45 0.50 0.50 0.54 0.59 0.68 0.75 0.99
0.56 0.57 0.54 0.52 0.43 0.42 0.39 0.32 0.40 0.48 0.50 0.51 0.56 0.54 0.52 0.40 0.21 0.14 0.10 0.13 0.37 0.36 0.39 0.32 0.31 0.36 0.30 0.28 0.24 0.27 0.27 0.26 0.26 0.26 0.22 0.26 0.25 0.26 0.26 0.22 0.24 0.20 0.20 0.20 0.20 0.24 0.27 0.27 0.25 0.25 0.27 0.27 0.28 0.23 0.21 0.17 0.16 0.18 0.15 0.14 0.14 0.14 0.14 0.14 0.14 0.15 0.11 0.09 0.12 0.15 0.16 0.15 0.11 0.14 0.18 0.21 0.21 0.23 0.30 0.35 0.37 0.40 0.42 0.47 0.58 0.68 0.86 0.95
0.56 0.57 0.58 0.55 0.50 0.48 0.32 0.31 0.45 0.50 0.48 0.51 0.49 0.43 0.37 0.18 0.20 0.13 0.12 0.29 0.20 0.33 0.34 0.32 0.34 0.33 0.30 0.31 0.29 0.24 0.22 0.24 0.27 0.22 0.19 0.20 0.22 0.21 0.21 0.16 0.18 0.15 0.14 0.15 0.16 0.23 0.22 0.23 0.26 0.27 0.30 0.28 0.25 0.21 0.19 0.18 0.19 0.16 0.14 0.14 0.12 0.13 0.13 0.11 0.12 0.10 0.09 0.09 0.12 0.14 0.15 0.14 0.12 0.15 0.20 0.21 0.22 0.21 0.25 0.31 0.33 0.36 0.38 0.42 0.61 0.76 0.95 0.93
0.55 0.55 0.56 0.56 0.53 0.45 0.41 0.42 0.46 0.47 0.52 0.50 0.45 0.41 0.25 0.16 0.10 0.14 0.17 0.24 0.22 0.38 0.33 0.41 0.36 0.34 0.32 0.30 0.26 0.26 0.24 0.20 0.25 0.21 0.21 0.22 0.22 0.21 0.23 0.20 0.19 0.17 0.12 0.17 0.18 0.19 0.19 0.25 0.25 0.25 0.26 0.28 0.25 0.18 0.18 0.16 0.18 0.15 0.14 0.13 0.12 0.11 0.10 0.09 0.10 0.10 0.10 0.12 0.19 0.15 0.16 0.12 0.13 0.14 0.19 0.23 0.23 0.23 0.22 0.25 0.35 0.39 0.37 0.53 0.65 0.80 0.90 0.90
0.54 0.53 0.51 0.57 0.52 0.50 0.49 0.48 0.48 0.50 0.48 0.48 0.41 0.31 0.23 0.13 0.11 0.21 0.20 0.25 0.30 0.40 0.38 0.35 0.36 0.35 0.33 0.27 0.26 0.25 0.19 0.26 0.23 0.20 0.21 0.21 0.22 0.18 0.20 0.21 0.20 0.18 0.20 0.18 0.16 0.18 0.15 0.15 0.21 0.22 0.19 0.25 0.24 0.21 0.20 0.18 0.18 0.16 0.16 0.15 0.13 0.12 0.10 0.09 0.10 0.09 0.09 0.10 0.15 0.16 0.13 0.10 0.10 0.12 0.16 0.19 0.34 0.30 0.31 0.32 0.37 0.47 0.60 0.69 0.75 0.95 0.85 0.88
0.54 0.53 0.51 0.54 0.53 0.51 0.51 0.53 0.54 0.56 0.52 0.45 0.34 0.24 0.15 0.12 0.16 0.18 0.21 0.28 0.33 0.35 0.33 0.38 0.34 0.32 0.29 0.31 0.29 0.24 0.23 0.20 0.24 0.20 0.19 0.21 0.19 0.20 0.18 0.19 0.21 0.20 0.21 0.17 0.18 0.20 0.17 0.16 0.20 0.24 0.24 0.26 0.23 0.24 0.25 0.21 0.19 0.18 0.17 0.17 0.14 0.13 0.15 0.11 0.11 0.12 0.12 0.12 0.15 0.13 0.11 0.12 0.11 0.37 0.35 0.34 0.28 0.29 0.31 0.30 0.30 0.32 0.44 0.58 0.67 0.82 0.84 0.80
0.52 0.47 0.48 0.51 0.51 0.56 0.55 0.57 0.57 0.56 0.48 0.38 0.26 0.18 0.15 0.15 0.16 0.26 0.27 0.37 0.35 0.31 0.32 0.35 0.35 0.30 0.30 0.28 0.26 0.22 0.26 0.23 0.22 0.21 0.19 0.21 0.22 0.21 0.22 0.21 0.20 0.21 0.21 0.17 0.20 0.17 0.18 0.15 0.21 0.21 0.24 0.25 0.24 0.25 0.25 0.25 0.15 0.17 0.17 0.14 0.14 0.16 0.17 0.16 0.15 0.17 0.15 0.16 0.14 0.15 0.11 0.15 0.28 0.27 0.38 0.31 0.25 0.25 0.30 0.30 0.30 0.33 0.34 0.45 0.59 0.74 0.81 0.84
0.44 0.44 0.38 0.46 0.52 0.60 0.60 0.58 0.58 0.53 0.45 0.32 0.23 0.16 0.19 0.21 0.27 0.29 0.36 0.33 0.34 0.36 0.31 0.25 0.29 0.31 0.28 0.25 0.22 0.22 0.22 0.24 0.22 0.21 0.18 0.23 0.21 0.22 0.21 0.20 0.23 0.22 0.25 0.23 0.22 0.23 0.16 0.16 0.22 0.20 0.19 0.23 0.26 0.26 0.27 0.25 0.22 0.20 0.15 0.16 0.18 0.20 0.20 0.17 0.11 0.13 0.12 0.10 0.10 0.13 0.10 0.10 0.13 0.12 0.29 0.27 0.23 0.22 0.25 0.28 0.31 0.37 0.39 0.42 0.56 0.66 0.75 0.83
0.42 0.40 0.38 0.43 0.52 0.61 0.61 0.59 0.55 0.48 0.42 0.30 0.20 0.19 0.26 0.20 0.30 0.30 0.37 0.36 0.36 0.36 0.30 0.27 0.29 0.36 0.29 0.25 0.21 0.23 0.23 0.21 0.20 0.21 0.20 0.21 0.19 0.24 0.22 0.21 0.22 0.22 0.23 0.26 0.24 0.22 0.21 0.17 0.19 0.20 0.20 0.22 0.25 0.26 0.23 0.24 0.24 0.22 0.17 0.22 0.17 0.15 0.14 0.17 0.13 0.11 0.08 0.09 0.10 0.15 0.14 0.12 0.11 0.14 0.32 0.27 0.22 0.23 0.24 0.25 0.31 0.36 0.38 0.42 0.55 0.64 0.74 0.84
0.43 0.38 0.33 0.44 0.59 0.64 0.61 0.63 0.54 0.45 0.35 0.24 0.21 0.18 0.21 0.23 0.32 0.32 0.36 0.36 0.37 0.33 0.28 0.31 0.28 0.32 0.33 0.30 0.28 0.27 0.23 0.20 0.22 0.20 0.19 0.20 0.20 0.24 0.22 0.24 0.21 0.23 0.23 0.25 0.23 0.23 0.23 0.18 0.17 0.20 0.20 0.21 0.22 0.22 0.16 0.18 0.22 0.26 0.25 0.18 0.19 0.17 0.14 0.14 0.13 0.15 0.11 0.09 0.09 0.13 0.13 0.10 0.13 0.15 0.30 0.28 0.26 0.26 0.26 0.28 0.31 0.36 0.40 0.44 0.57 0.64 0.73 0.77
0.40 0.34 0.32 0.53 0.61 0.65 0.61 0.60 0.47 0.40 0.29 0.20 0.22 0.21 0.23 0.24 0.31 0.36 0.37 0.35 0.31 0.30 0.30 0.29 0.33 0.30 0.33 0.35 0.33 0.25 0.24 0.23 0.21 0.22 0.22 0.21 0.21 0.27 0.21 0.23 0.21 0.20 0.24 0.26 0.23 0.25 0.21 0.23 0.16 0.18 0.21 0.21 0.16 0.18 0.17 0.18 0.17 0.19 0.19 0.17 0.17 0.17 0.20 0.17 0.16 0.14 0.13 0.11 0.10 0.12 0.14 0.14 0.14 0.20 0.24 0.29 0.27 0.26 0.30 0.36 0.38 0.43 0.48 0.51 0.60 0.66 0.72 0.73
0.48 0.40 0.40 0.61 0.60 0.66 0.60 0.50 0.37 0.26 0.24 0.25 0.24 0.22 0.24 0.23 0.31 0.34 0.38 0.41 0.37 0.41 0.33 0.32 0.32 0.31 0.32 0.31 0.30 0.33 0.24 0.23 0.22 0.21 0.22 0.21 0.20 0.17 0.23 0.22 0.23 0.21 0.24 0.23 0.23 0.24 0.20 0.21 0.18 0.18 0.17 0.16 0.17 0.21 0.21 0.21 0.21 0.18 0.17 0.18 0.18 0.16 0.17 0.14 0.13 0.14 0.15 0.13 0.12 0.11 0.11 0.16 0.21 0.29 0.24 0.26 0.28 0.39 0.46 0.51 0.49 0.51 0.55 0.58 0.65 0.73 0.70 0.71
0.42 0.31 0.37 0.56 0.62 0.64 0.49 0.31 0.29 0.30 0.25 0.22 0.19 0.22 0.20 0.30 0.29 0.31 0.35 0.38 0.38 0.35 0.43 0.38 0.38 0.37 0.35 0.34 0.34 0.31 0.29 0.23 0.22 0.22 0.21 0.21 0.20 0.22 0.22 0.24 0.23 0.24 0.21 0.20 0.22 0.24 0.25 0.22 0.20 0.18 0.17 0.17 0.19 0.22 0.22 0.23 0.22 0.20 0.20 0.19 0.20 0.19 0.19 0.15 0.14 0.16 0.16 0.16 0.22 0.17 0.13 0.12 0.38 0.35 0.33 0.35 0.41 0.47 0.54 0.54 0.53 0.55 0.60 0.63 0.71 0.74 0.74 0.75
0.40 0.35 0.49 0.54 0.62 0.58 0.39 0.27 0.25 0.23 0.23 0.23 0.26 0.23 0.28 0.28 0.29 0.33 0.31 0.35 0.33 0.40 0.39 0.39 0.38 0.37 0.38 0.36 0.34 0.31 0.32 0.24 0.21 0.20 0.21 0.21 0.22 0.23 0.26 0.23 0.23 0.23 0.22 0.23 0.24 0.26 0.28 0.20 0.19 0.20 0.20 0.21 0.22 0.22 0.23 0.24 0.23 0.20 0.19 0.20 0.20 0.18 0.18 0.16 0.16 0.20 0.15 0.17 0.17 0.20 0.14 0.20 0.37 0.44 0.35 0.33 0.39 0.45 0.51 0.55 0.57 0.60 0.65 0.69 0.70 0.73 0.76 0.78
0.41 0.38 0.41 0.54 0.60 0.53 0.35 0.21 0.20 0.20 0.22 0.25 0.24 0.25 0.30 0.29 0.31 0.30 0.32 0.35 0.36 0.37 0.38 0.40 0.41 0.43 0.36 0.38 0.36 0.32 0.37 0.26 0.25 0.24 0.20 0.22 0.22 0.24 0.25 0.24 0.23 0.22 0.20 0.22 0.21 0.27 0.19 0.20 0.20 0.17 0.16 0.18 0.20 0.21 0.21 0.22 0.22 0.19 0.17 0.17 0.19 0.20 0.20 0.20 0.19 0.22 0.16 0.14 0.13 0.12 0.10 0.11 0.37 0.45 0.39 0.38 0.37 0.45 0.49 0.59 0.61 0.58 0.64 0.66 0.69 0.73 0.79 0.83
0.42 0.45 0.43 0.46 0.50 0.45 0.26 0.28 0.25 0.24 0.27 0.27 0.26 0.26 0.27 0.29 0.32 0.34 0.35 0.35 0.41 0.40 0.39 0.38 0.41 0.43 0.39 0.40 0.35 0.37 0.36 0.33 0.22 0.27 0.31 0.23 0.27 0.25 0.24 0.25 0.24 0.23 0.23 0.26 0.25 0.28 0.21 0.20 0.19 0.16 0.13 0.12 0.11 0.12 0.12 0.14 0.15 0.18 0.19 0.18 0.20 0.21 0.21 0.18 0.17 0.20 0.15 0.15 0.14 0.12 0.12 0.26 0.35 0.39 0.39 0.39 0.44 0.46 0.56 0.60 0.63 0.63 0.65 0.67 0.69 0.72 0.81 0.85
0.34 0.26 0.34 0.39 0.44 0.41 0.37 0.40 0.36 0.32 0.29 0.30 0.28 0.30 0.32 0.32 0.39 0.43 0.43 0.41 0.44 0.44 0.45 0.44 0.46 0.45 0.40 0.37 0.32 0.31 0.32 0.36 0.32 0.27 0.27 0.23 0.29 0.23 0.24 0.26 0.24 0.23 0.24 0.27 0.29 0.26 0.22 0.24 0.22 0.21 0.17 0.14 0.15 0.17 0.19 0.19 0.19 0.17 0.18 0.18 0.18 0.19 0.21 0.22 0.20 0.17 0.14 0.15 0.15 0.15 0.14 0.18 0.28 0.31 0.37 0.39 0.43 0.46 0.53 0.57 0.56 0.60 0.64 0.72 0.76 0.77 0.83 0.84
0.42 0.30 0.31 0.28 0.37 0.38 0.35 0.38 0.36 0.37 0.31 0.36 0.28 0.33 0.30 0.35 0.37 0.41 0.50 0.39 0.48 0.46 0.46 0.46 0.44 0.40 0.38 0.37 0.33 0.32 0.37 0.33 0.36 0.35 0.30 0.25 0.33 0.29 0.25 0.25 0.25 0.25 0.26 0.26 0.31 0.26 0.23 0.22 0.23 0.24 0.22 0.20 0.19 0.19 0.22 0.20 0.18 0.19 0.19 0.18 0.19 0.19 0.21 0.21 0.17 0.15 0.19 0.16 0.15 0.19 0.17 0.16 0.20 0.32 0.32 0.37 0.44 0.49 0.55 0.56 0.56 0.61 0.68 0.70 0.77 0.78 0.77 0.80
0.32 0.37 0.41 0.41 0.33 0.28 0.31 0.33 0.40 0.37 0.38 0.39 0.34 0.38 0.34 0.34 0.36 0.34 0.45 0.47 0.48 0.51 0.42 0.45 0.46 0.45 0.43 0.40 0.39 0.33 0.33 0.34 0.34 0.30 0.31 0.31 0.30 0.28 0.23 0.27 0.24 0.26 0.28 0.25 0.30 0.25 0.22 0.19 0.23 0.25 0.27 0.30 0.31 0.28 0.27 0.22 0.20 0.20 0.21 0.21 0.20 0.20 0.20 0.20 0.19 0.22 0.22 0.19 0.18 0.18 0.17 0.16 0.19 0.26 0.38 0.39 0.40 0.44 0.53 0.56 0.59 0.65 0.71 0.77 0.78 0.73 0.76 0.78
0.45 0.42 0.42 0.48 0.34 0.36 0.37 0.37 0.39 0.38 0.37 0.38 0.36 0.38 0.35 0.35 0.35 0.40 0.40 0.42 0.46 0.45 0.48 0.37 0.41 0.46 0.46 0.41 0.39 0.33 0.33 0.28 0.27 0.36 0.34 0.30 0.31 0.29 0.25 0.24 0.27 0.28 0.26 0.26 0.27 0.28 0.24 0.20 0.24 0.24 0.26 0.28 0.29 0.32 0.29 0.23 0.22 0.21 0.21 0.21 0.21 0.20 0.19 0.20 0.22 0.23 0.25 0.23 0.22 0.27 0.24 0.20 0.18 0.19 0.43 0.49 0.48 0.49 0.56 0.64 0.65 0.61 0.70 0.77 0.74 0.75 0.73 0.79
0.38 0.38 0.36 0.45 0.42 0.39 0.41 0.42 0.40 0.39 0.35 0.39 0.34 0.36 0.38 0.38 0.36 0.41 0.45 0.43 0.38 0.42 0.50 0.42 0.44 0.47 0.45 0.43 0.42 0.37 0.39 0.44 0.40 0.33 0.38 0.39 0.32 0.35 0.30 0.26 0.25 0.28 0.26 0.28 0.28 0.32 0.27 0.22 0.25 0.25 0.26 0.30 0.31 0.33 0.32 0.25 0.25 0.23 0.23 0.23 0.22 0.21 0.21 0.21 0.22 0.22 0.24 0.24 0.22 0.27 0.29 0.23 0.33 0.38 0.49 0.55 0.52 0.52 0.55 0.56 0.61 0.64 0.66 0.74 0.75 0.75 0.76 0.79
0.50 0.53 0.50 0.40 0.35 0.39 0.42 0.41 0.39 0.38 0.36 0.38 0.36 0.37 0.39 0.41 0.39 0.44 0.43 0.51 0.46 0.41 0.46 0.43 0.48 0.47 0.47 0.43 0.42 0.44 0.47 0.46 0.44 0.40 0.43 0.43 0.35 0.42 0.41 0.36 0.34 0.24 0.25 0.30 0.29 0.31 0.26 0.32 0.27 0.26 0.22 0.27 0.36 0.37 0.34 0.31 0.27 0.26 0.26 0.26 0.26 0.24 0.20 0.21 0.20 0.23 0.23 0.22 0.24 0.23 0.22 0.23 0.40 0.41 0.45 0.51 0.49 0.46 0.46 0.54 0.59 0.66 0.66 0.72 0.79 0.74 0.80 0.81
0.56 0.59 0.58 0.48 0.36 0.41 0.39 0.42 0.43 0.40 0.34 0.40 0.41 0.41 0.40 0.40 0.45 0.46 0.40 0.49 0.52 0.54 0.51 0.51 0.51 0.46 0.43 0.43 0.42 0.46 0.50 0.50 0.49 0.49 0.49 0.49 0.49 0.47 0.46 0.45 0.39 0.28 0.26 0.29 0.29 0.28 0.23 0.28 0.25 0.25 0.21 0.23 0.35 0.36 0.35 0.29 0.25 0.22 0.24 0.26 0.26 0.26 0.27 0.25 0.24 0.27 0.28 0.28 0.24 0.21 0.20 0.24 0.41 0.41 0.37 0.41 0.46 0.47 0.49 0.52 0.56 0.66 0.71 0.72 0.76 0.78 0.83 0.83
Wind_Speed
25 25 25 25 25 25 25 25 25 25 25 25 25 25 25 26 26 26 27 27 27 27 27 27 27 27 27 27 27 27 27 27 27 27 28 28 27 27 27 27 28 28 29 29 28 27 27 27 26 25 25 24 24 24 24 24 24 24 24 25 25 24 23 21 20 19 18 18 18 18 17 18 17 15 15 16 18 19 19 19 18 17 15 14 14 16 18 17
26 26 26 26 26 26 26 26 26 26 26 26 26 26 26 26 26 26 27 27 27 27 27 27 27 27 27 27 27 27 27 27 28 29 30 28 27 28 28 28 28 28 28 29 29 28 27 27 26 26 26 25 24 24 24 24 24 23 23 24 25 23 21 20 20 19 20 20 19 19 17 17 17 15 15 16 18 19 20 19 19 18 16 15 16 17 18 17
27 28 28 27 27 27 27 27 27 27 27 27 27 27 26 26 26 26 27 27 27 28 28 28 28 28 28 27 27 27 27 28 29 28 27 26 27 27 27 28 29 29 29 29 28 28 27 27 27 27 27 26 25 25 24 24 24 24 22 22 24 23 21 21 22 21 21 21 21 20 18 18 17 16 16 16 18 20 21 20 20 20 18 18 18 18 18 18
28 28 29 29 29 29 29 29 29 29 28 28 28 28 28 27 27 27 27 27 27 28 28 28 28 28 28 27 27 27 27 28 27 25 24 25 25 25 26 27 28 29 29 29 28 28 27 27 27 28 27 26 26 26 26 25 24 24 24 22 21 21 22 22 23 23 22 22 22 21 19 18 17 17 17 17 18 20 21 20 21 21 20 20 19 19 19 18
29 29 29 29 30 30 30 30 30 30 30 29 29 29 28 28 28 28 27 27 27 28 28 28 28 28 28 28 28 27 26 26 24 23 24 25 24 24 25 26 28 30 30 29 29 28 27 27 28 28 28 27 26 27 27 26 25 23 24 24 21 20 21 22 23 23 22 22 22 22 20 19 17 18 18 18 18 17 19 21 21 21 21 20 20 20 19 18
29 29 29 30 30 30 30 31 31 31 31 30 30 30 29 29 29 29 28 28 28 28 28 28 28 28 28 28 28 27 27 25 23 23 25 24 23 23 24 25 27 29 30 30 29 28 28 27 28 28 28 27 27 27 27 27 26 24 24 25 24 22 21 20 22 22 22 23 23 23 21 19 19 19 18 19 19 17 18 21 20 20 21 21 21 20 19 19
29 29 29 30 30 30 30 31 31 31 31 31 31 31 30 30 30 29 29 29 29 28 28 28 28 28 27 28 28 28 29 29 26 25 25 25 24 23 23 24 25 29 30 30 30 29 28 28 28 28 28 27 27 27 27 26 27 26 23 24 24 24 23 22 22 23 23 24 24 23 22 20 20 19 18 19 20 19 19 20 21 21 21 20 21 20 19 19
29 29 30 30 30 30 30 31 31 31 32 32 32 31 31 31 31 30 30 30 29 29 29 28 28 28 27 27 27 28 30 31 29 28 27 27 25 23 23 24 24 27 30 31 31 30 29 29 29 28 27 27 26 27 27 26 27 28 25 23 23 24 24 23 23 23 24 24 24 24 23 22 21 19 19 20 20 21 21 21 22 21 21 20 21 20 20 19
29 30 30 30 31 31 31 31 31 32 32 32 32 32 32 31 31 31 31 30 30 30 29 29 29 28 28 27 28 29 28 28 29 29 28 28 27 25 24 24 24 26 29 31 31 32 31 30 29 28 26 26 26 26 27 26 25 27 28 24 23 23 23 23 23 23 23 23 24 24 24 22 20 19 20 21 20 21 21 22 22 22 21 21 21 21 20 19
30 30 31 31 31 31 31 31 32 32 32 33 33 33 33 32 32 32 31 31 31 30 30 30 29 29 29 28 29 29 26 26 28 28 28 28 28 27 26 25 25 26 28 30 31 33 32 30 29 28 26 25 25 26 27 27 24 23 27 26 24 23 23 23 23 23 22 22 24 24 24 22 20 18 19 19 21 22 22 22 22 22 22 21 21 21 20 19
31 31 31 31 31 32 32 32 32 32 33 33 33 33 33 33 33 32 32 32 31 31 30 30 29 29 30 30 31 29 25 27 28 27 28 28 29 28 28 27 27 27 28 29 31 32 32 31 29 27 26 25 25 25 26 27 24 22 24 24 25 24 24 24 24 23 22 22 23 23 24 23 21 20 19 19 21 23 23 23 23 23 22 22 21 21 20 20
31 32 32 32 32 32 32 32 32 33 33 33 33 33 33 33 33 33 33 33 32 31 31 31 30 30 30 32 33 30 28 29 30 30 30 29 30 30 29 29 28 28 28 28 30 31 32 32 31 29 26 24 25 24 24 26 25 24 23 23 23 24 24 25 24 24 23 22 22 21 21 22 23 22 20 20 22 23 23 23 23 23 22 22 22 21 20 20
31 32 32 33 33 33 33 33 33 33 33 34 34 34 34 33 33 33 33 33 32 32 32 32 31 31 31 33 32 31 32 33 32 32 32 31 31 31 30 30 30 29 29 28 29 31 32 31 32 31 27 25 25 22 22 24 25 24 24 23 23 23 23 24 24 24 24 23 22 21 19 20 23 22 20 21 23 24 24 23 23 23 22 22 22 21 20 20
33 32 32 33 33 34 34 34 34 34 34 34 34 34 34 33 34 34 33 33 33 33 33 33 32 31 33 33 31 32 34 33 33 33 32 31 31 30 30 30 30 29 29 29 28 30 31 30 32 32 29 27 25 23 22 22 24 23 23 23 23 23 22 23 24 24 24 23 23 22 19 18 20 21 20 21 23 24 24 24 24 23 23 23 22 21 21 21
34 34 34 34 34 34 34 34 34 34 34 34 34 34 34 34 34 34 34 33 33 33 33 32 32 31 33 33 30 30 32 31 32 32 31 30 30 29 29 30 31 30 29 29 28 29 30 31 32 32 30 29 26 25 24 22 23 24 23 23 24 23 21 21 23 24 24 23 24 23 20 17 18 20 20 21 23 24 24 24 24 23 23 23 22 22 21 21
35 35 35 35 35 34 34 35 35 35 35 35 35 35 34 34 34 34 34 33 33 32 31 31 31 31 31 29 26 27 29 30 30 29 29 29 29 29 28 29 30 30 29 28 28 29 30 31 32 32 30 30 28 26 25 24 24 24 24 23 23 25 22 20 22 24 25 23 24 25 21 17 16 19 21 21 23 24 23 24 24 24 24 23 23 22 22 22
36 36 36 36 35 35 35 35 35 35 35 35 35 35 34 34 34 34 33 32 31 29 29 29 29 31 31 28 26 27 27 28 28 28 28 28 29 28 28 29 30 29 29 28 28 30 31 31 31 31 30 30 29 28 27 27 26 25 25 23 22 24 24 21 21 23 25 24 24 25 23 18 16 19 21 21 22 23 23 24 24 24 24 24 23 23 23 22
36 36 36 36 36 36 35 35 35 35 35 35 35 35 34 34 34 33 32 30 28 27 28 28 28 28 29 28 28 28 26 26 27 28 28 28 28 29 28 29 30 30 29 28 29 31 32 31 31 31 31 31 31 31 30 29 27 26 26 24 22 22 23 22 20 22 25 26 25 26 25 20 17 19 21 21 23 23 23 24 24 24 24 24 23 23 23 23
36 36 36 36 36 36 36 35 35 35 35 35 35 34 34 33 32 32 31 30 29 28 27 27 29 28 25 25 26 26 26 27 27 28 29 28 28 29 29 29 30 31 30 29 30 32 32 30 31 32 33 34 34 34 32 27 26 27 26 25 22 21 22 22 20 21 24 26 26 26 26 23 19 20 22 22 23 23 24 24 24 25 24 24 24 23 23 23
36 36 36 36 36 36 36 35 35 35 35 34 33 32 31 31 30 30 29 30 31 31 30 29 31 32 29 27 26 24 25 27 28 28 28 28 28 30 30 29 31 31 31 30 30 32 33 31 33 35 34 35 35 34 32 28 25 26 25 25 23 21 21 22 21 20 23 25 26 26 26 24 22 21 22 22 23 23 24 25 25 25 25 24 24 24 23 23
36 36 36 36 36 36 35 35 34 34 34 33 32 31 30 30 30 29 29 31 33 33 34 34 34 34 33 32 30 26 25 26 29 29 28 28 29 30 31 32 32 31 31 30 29 30 33 33 35 35 33 32 33 33 32 30 27 25 24 24 24 22 20 21 21 20 22 24 25 27 26 24 23 22 23 23 23 24 24 25 26 26 25 25 25 25 24 23
37 36 36 36 36 35 35 35 34 34 33 32 31 31 31 31 31 30 30 33 34 34 35 35 36 36 34 34 33 31 28 27 29 30 30 29 30 31 32 33 33 31 30 30 29 30 32 34 34 33 32 31 32 33 33 31 28 25 24 24 24 23 20 20 21 21 22 23 22 26 27 24 24 23 23 24 24 24 24 25 26 26 26 25 25 25 25 24
36 36 36 35 35 34 34 34 34 33 33 32 32 32 32 31 30 30 31 32 33 33 35 36 36 36 34 34 33 33 32 30 29 30 31 31 32 32 32 34 33 31 32 32 31 30 31 32 32 31 31 32 31 31 32 30 28 27 26 25 24 24 23 20 21 22 23 22 20 24 27 24 23 24 23 24 25 24 25 25 26 26 26 26 25 25 25 25
36 35 35 34 34 34 33 33 33 32 31 31 32 32 31 30 30 30 30 31 31 31 32 34 34 34 33 31 31 33 33 32 30 30 31 32 33 32 32 33 33 32 32 33 32 31 29 29 30 31 30 31 30 30 32 30 29 29 28 27 24 24 25 20 20 22 22 23 21 22 25 24 24 25 24 24 25 25 25 26 25 25 26 25 25 25 25 25
35 35 34 34 33 32 32 32 30 29 29 29 29 29 29 28 28 28 28 28 29 27 27 29 30 30 30 28 28 31 31 32 33 31 31 33 33 32 32 32 32 32 33 33 32 31 29 28 30 30 30 31 31 30 32 30 28 29 30 29 25 24 25 21 20 21 21 23 24 24 23 23 26 27 26 25 25 25 25 26 26 25 26 26 25 25 25 25
35 34 34 33 32 31 30 28 26 26 27 26 25 24 24 25 25 25 24 25 26 24 23 25 26 25 26 27 28 28 29 31 33 33 32 33 33 32 31 31 31 31 32 32 30 29 29 29 30 30 30 32 31 31 32 32 29 28 29 30 26 24 25 24 22 22 22 21 23 26 24 21 24 28 28 27 27 28 26 26 27 26 26 27 26 25 25 24
34 33 32 31 30 29 27 26 25 26 25 23 22 22 22 23 22 22 21 22 23 21 21 22 22 23 23 25 28 28 25 25 30 34 34 32 33 32 31 31 31 30 30 29 29 29 30 30 30 30 30 30 31 30 32 33 29 26 27 29 27 24 24 24 23 23 22 19 20 26 27 21 22 26 30 30 29 29 28 27 27 27 27 26 26 24 24 24
33 32 31 30 29 29 27 26 26 25 24 22 21 21 21 20 20 19 19 19 17 16 18 19 20 21 21 22 28 27 22 21 26 32 34 32 32 32 31 31 32 31 30 30 29 28 29 31 30 30 30 29 29 29 30 33 30 24 25 29 27 25 24 23 22 22 22 20 21 25 27 24 21 22 27 30 30 30 30 29 28 27 27 26 26 24 23 24
32 31 30 30 30 29 27 26 25 24 22 20 20 20 20 20 19 18 18 17 16 14 16 18 19 20 20 21 27 28 23 21 23 27 33 33 32 31 30 30 32 31 31 31 29 25 27 30 29 29 29 27 28 28 29 32 29 24 24 27 27 25 25 23 22 22 21 22 24 26 27 26 23 22 25 28 31 31 29 29 28 28 28 27 26 25 24 23
31 31 30 30 29 27 25 24 23 21 19 18 19 18 18 19 18 18 18 16 14 13 14 17 18 18 20 21 24 27 25 21 21 26 31 32 32 30 28 28 30 30 29 31 30 24 26 29 28 28 28 26 26 26 27 30 29 25 24 25 25 25 25 24 23 22 21 23 26 27 27 27 25 23 25 27 30 30 29 28 28 28 29 28 26 26 24 22
30 30 29 28 27 26 24 21 19 16 15 15 16 15 16 17 17 18 17 15 13 11 13 16 17 17 19 19 21 25 26 22 22 28 30 30 32 31 29 28 29 30 29 30 31 25 26 29 28 28 28 27 26 25 26 29 28 26 25 25 25 24 24 23 23 23 23 23 26 28 27 27 26 24 24 26 29 30 29 28 28 28 29 28 27 26 24 22
29 29 28 26 25 24 21 18 15 12 11 12 14 13 14 16 18 18 16 14 13 10 11 14 16 16 18 18 19 23 24 22 23 28 29 29 30 30 30 30 30 31 30 31 31 26 26 29 28 28 28 28 27 25 26 28 28 27 27 27 25 23 23 23 24 25 25 23 24 27 28 27 27 26 22 23 27 29 28 28 28 28 29 28 27 26 24 22
28 28 26 24 22 21 17 14 10 8 8 9 11 12 13 14 16 18 17 14 12 11 11 13 14 15 17 18 19 22 23 21 24 28 28 28 29 29 31 31 32 31 28 31 32 27 25 28 30 29 28 30 30 27 27 28 29 28 28 29 27 24 23 25 24 24 25 23 21 25 26 25 27 27 26 23 23 26 27 26 24 24 26 27 27 25 23 23
28 25 23 21 19 16 13 8 3 4 6 7 9 11 13 14 14 15 16 14 11 10 11 12 13 15 18 18 18 22 22 21 25 28 27 28 28 29 30 31 33 31 27 29 30 28 27 27 30 31 28 31 32 29 28 27 28 28 27 27 27 25 24 24 24 23 24 23 22 24 24 24 24 24 26 25 22 22 23 23 22 21 22 24 25 23 22 23
26 22 19 17 15 12 9 4 0 3 4 5 8 11 13 15 14 12 12 12 10 8 8 10 12 15 18 17 18 23 21 19 25 27 26 28 27 28 30 30 33 32 28 28 28 28 27 24 28 30 27 30 32 29 28 27 27 27 27 26 27 26 23 22 20 21 22 22 22 24 23 23 21 20 22 23 23 23 22 23 23 23 22 24 25 23 23 23
22 18 16 14 11 9 6 2 1 3 4 5 8 10 12 15 14 10 9 11 10 8 5 7 11 13 16 17 18 22 20 18 25 25 24 27 26 28 29 28 31 32 29 28 26 26 25 21 26 29 27 29 32 29 28 29 26 26 28 28 27 25 23 22 19 18 20 21 21 23 24 23 21 20 22 23 24 25 24 23 24 24 24 25 25 24 23 24
18 16 14 11 10 9 5 3 2 4 5 6 8 9 11 14 14 10 9 9 10 9 6 6 10 10 12 16 19 21 20 19 24 24 23 25 25 27 29 28 31 32 29 27 25 25 24 20 24 28 27 28 30 28 29 29 26 25 28 28 25 23 22 23 21 20 22 22 20 22 26 25 23 21 21 23 24 25 25 24 23 23 24 25 25 25 24 24
16 15 12 9 9 8 6 5 5 5 5 6 8 9 10 13 14 12 10 9 9 9 7 7 10 9 9 13 17 20 19 19 23 23 22 24 23 26 29 27 29 31 29 27 24 24 24 21 22 26 26 27 29 28 28 30 29 26 26 27 25 24 24 24 23 22 23 22 20 22 25 25 24 22 20 23 24 24 24 24 24 23 23 24 25 26 25 24
15 13 11 9 9 8 5 3 4 5 5 6 7 9 11 11 13 13 11 9 9 9 8 8 10 10 9 11 15 19 18 19 22 22 21 22 21 24 29 26 27 30 30 27 24 24 24 20 20 25 26 25 27 28 28 30 30 27 25 27 27 25 24 24 24 22 22 22 21 21 23 24 25 22 20 21 22 22 23 23 23 23 23 23 24 25 25 24
15 13 10 10 10 7 3 1 3 4 5 5 6 9 10 11 13 13 11 10 9 9 9 8 10 11 10 10 14 17 16 18 22 20 20 21 20 22 28 27 26 29 29 27 24 24 24 20 19 24 26 25 27 28 29 29 30 29 27 28 28 26 23 24 25 24 22 22 21 20 20 21 23 22 21 20 20 21 22 21 22 22 23 23 23 24 24 24
15 13 11 11 10 5 2 2 3 4 4 5 6 9 10 11 13 12 10 10 9 9 9 9 10 11 11 11 13 15 15 17 21 19 18 21 20 19 25 28 26 28 28 26 24 24 24 22 20 23 26 25 25 26 27 28 29 30 28 27 27 26 24 23 24 25 24 21 20 21 20 18 18 20 21 20 19 18 19 20 21 21 22 23 22 22 23 24
15 13 12 13 9 3 3 2 3 3 5 5 7 9 11 12 12 10 9 10 9 9 9 9 11 12 12 12 12 13 14 16 19 18 17 20 19 17 23 28 28 28 27 24 23 23 22 22 21 22 24 24 23 24 27 26 28 29 28 27 27 26 26 25 23 24 24 21 19 19 19 17 16 16 18 19 18 18 18 19 20 20 21 21 21 21 22 24
14 13 12 11 5 2 2 2 4 5 6 7 8 10 12 12 10 9 9 9 8 8 9 10 11 11 12 12 12 13 14 15 17 17 16 19 18 16 22 28 28 28 27 24 23 22 20 21 21 20 22 23 21 22 25 25 26 28 29 29 28 28 29 27 23 22 24 24 21 18 18 17 15 15 17 18 19 19 19 20 20 19 19 19 19 19 21 22
13 11 10 10 6 5 5 5 6 7 8 9 10 11 12 11 9 8 8 9 9 8 9 9 10 10 11 11 12 13 13 14 16 16 14 16 15 15 21 28 28 27 26 24 24 23 21 21 22 21 21 22 21 22 25 27 28 28 29 30 30 29 29 28 24 22 24 26 25 21 19 17 15 16 17 18 20 20 20 20 20 19 18 19 19 19 20 21
10 8 8 10 9 9 8 9 10 10 10 10 9 10 10 9 8 9 9 8 8 9 9 9 9 9 10 10 12 14 13 14 15 15 13 14 14 14 20 26 26 25 25 24 24 23 20 20 22 22 21 22 22 23 26 28 29 28 29 31 31 30 30 28 25 24 23 25 26 25 21 17 15 16 17 19 21 21 21 21 20 20 19 20 20 20 20 21
10 9 9 10 11 11 10 10 10 10 10 9 9 9 9 8 8 9 9 7 8 9 9 9 8 8 10 11 12 14 14 14 14 14 14 14 14 14 19 24 25 24 24 23 24 23 19 19 21 21 20 21 22 22 23 26 28 28 29 31 31 30 30 28 26 25 23 23 24 26 24 20 17 16 16 18 20 21 21 20 20 20 21 20 20 20 20 20
11 12 12 11 11 10 10 10 9 9 9 9 9 8 8 8 7 8 9 8 8 9 9 9 9 9 10 11 11 12 13 14 14 13 14 14 13 14 18 22 23 23 22 23 24 22 18 19 21 20 18 18 19 20 22 25 28 29 29 30 31 31 30 29 27 25 24 23 23 24 26 24 20 17 17 17 18 19 20 21 21 21 21 20 21 20 20 20
12 12 12 12 11 10 10 10 9 8 7 8 9 9 8 7 7 7 8 7 8 9 10 10 10 9 9 9 10 11 13 13 13 14 14 15 14 15 17 20 21 22 22 23 24 22 18 18 21 19 16 15 16 18 21 24 27 28 29 29 30 31 31 31 29 25 24 23 21 21 26 27 23 19 18 18 18 18 19 21 22 21 21 21 21 21 21 21
13 12 12 11 11 10 9 9 8 8 7 7 8 8 7 7 6 7 7 7 8 10 11 10 8 8 9 11 11 12 12 12 12 13 13 14 15 15 16 18 19 21 22 22 22 21 18 17 19 19 17 16 15 16 20 24 25 27 28 29 30 31 32 31 30 28 25 24 21 19 22 25 23 20 19 19 18 18 18 20 21 21 22 22 22 22 21 21
12 12 11 11 11 10 9 9 8 7 7 7 8 8 7 6 6 7 7 7 8 10 11 9 7 7 10 12 12 11 11 10 11 12 12 13 14 14 14 15 17 20 22 21 20 20 18 16 17 18 16 15 14 15 19 23 24 25 27 27 28 30 31 31 31 29 27 26 24 21 20 21 21 20 20 19 19 19 19 19 21 22 22 22 22 22 22 22
11 11 10 10 10 10 9 9 8 7 8 8 8 7 7 7 7 6 7 9 9 9 10 9 7 8 11 12 12 11 10 9 10 11 11 12 12 11 12 13 16 20 22 20 19 20 18 15 16 18 16 15 14 15 17 20 23 24 26 27 28 29 30 30 30 29 28 27 25 24 23 21 20 21 21 21 20 20 20 20 21 22 23 23 23 22 22 22
11 10 9 9 9 9 9 8 8 9 9 9 8 7 7 7 6 6 8 10 10 10 10 8 7 8 11 12 10 9 9 8 9 11 11 11 11 10 10 12 15 17 20 20 19 19 19 16 16 17 16 14 15 15 16 19 21 22 23 25 28 29 28 28 28 28 28 26 24 24 23 21 20 21 22 22 22 21 21 21 21 22 23 24 23 22 22 22
Wind_Direction
285 283 283 283 282 281 281 280 280 280 279 278 277 276 275 274 273 272 271 270 269 268 267 267 267 266 266 267 267 267 266 263 259 255 250 248 246 245 244 243 241 238 237 237 236 236 235 232 232 231 231 231 232 232 229 230 230 230 232 233 236 236 237 236 231 231 233 232 229 234 241 244 251 250 241 237 231 226 219 217 217 214 215 214 201 189 189 191
285 283 282 282 281 281 280 279 279 279 279 278 278 277 276 275 274 272 271 270 269 268 267 267 266 266 265 267 267 267 265 261 259 256 250 247 246 245 243 242 240 237 236 235 234 234 233 231 229 228 230 230 230 229 228 228 228 229 232 233 235 236 237 234 231 232 233 234 235 237 240 243 247 246 238 234 226 220 217 214 213 210 206 203 196 192 192 190
287 284 282 281 280 280 279 279 278 278 278 277 277 277 277 276 275 273 272 271 269 269 268 267 266 265 265 265 266 265 264 262 259 253 247 243 243 244 243 241 239 236 234 233 233 232 233 232 229 227 229 230 229 228 228 227 227 229 232 234 235 235 236 233 233 234 234 235 237 237 239 243 243 239 235 235 227 219 218 214 211 208 204 201 198 196 194 192
288 286 284 281 280 279 278 278 277 277 277 276 276 275 276 275 275 274 273 271 270 269 268 267 265 264 264 264 265 263 262 260 253 244 241 241 241 243 243 242 239 235 232 232 232 232 233 233 229 228 229 230 229 228 228 226 227 230 231 233 235 235 234 234 234 234 234 235 236 236 238 242 241 236 235 235 229 221 218 214 211 210 204 200 198 198 197 195
289 287 285 283 281 280 278 277 277 276 276 276 275 274 274 274 274 274 273 272 271 270 269 267 265 264 264 263 263 261 258 254 245 239 240 240 241 243 243 243 239 233 230 230 230 230 231 230 228 227 229 230 228 228 229 226 227 231 231 233 235 234 233 233 233 232 233 234 234 234 237 242 240 237 235 232 227 221 218 213 211 211 203 198 199 199 199 197
290 288 286 284 283 281 279 278 277 275 275 274 274 273 273 273 273 273 272 272 271 270 269 267 266 264 263 262 261 256 251 247 245 242 240 240 242 244 244 244 239 232 229 228 228 228 227 227 226 226 228 229 228 228 229 226 227 231 232 232 233 233 234 232 232 231 232 233 233 234 237 240 239 238 235 229 226 224 218 211 209 208 203 200 201 201 200 199
292 289 287 286 284 282 281 279 278 276 275 274 273 272 272 272 272 272 271 271 271 270 268 267 265 264 263 262 258 252 247 247 248 244 240 241 243 244 244 243 238 231 227 227 225 225 225 224 225 226 227 229 229 228 228 226 227 230 232 231 232 233 234 234 234 233 233 234 234 235 236 237 237 238 235 230 226 221 216 210 207 205 203 203 201 201 201 201
293 290 289 287 285 284 282 280 279 277 276 274 273 272 271 271 271 271 270 270 270 269 268 266 265 263 262 260 256 250 247 247 247 244 242 243 243 245 245 241 236 230 227 227 224 223 224 223 224 225 227 228 228 227 226 227 227 230 231 231 232 232 233 233 234 234 233 233 234 234 235 235 237 238 235 231 225 217 212 208 205 202 203 204 202 200 200 201
293 291 289 287 286 285 283 281 280 278 276 275 273 272 270 269 270 270 270 269 269 268 267 266 264 262 259 256 254 251 248 246 245 243 241 242 243 246 244 240 237 231 228 227 225 223 223 224 223 224 227 228 227 226 225 226 229 229 229 230 231 231 231 232 232 232 232 232 232 232 232 235 236 234 233 228 219 212 208 206 203 201 201 203 203 201 199 199
292 290 289 287 286 285 284 282 280 279 277 275 274 272 270 269 268 269 269 268 268 267 266 265 263 260 257 253 251 249 246 244 244 242 240 242 245 245 242 239 237 233 230 229 226 224 223 223 223 223 228 229 226 226 225 226 230 229 227 229 231 232 232 231 231 231 231 231 231 230 232 235 232 227 227 219 212 209 205 204 203 203 202 202 202 201 200 200
292 290 288 287 286 285 283 282 281 279 278 276 274 272 271 270 268 268 268 267 267 267 265 263 261 259 255 252 248 245 245 244 243 242 243 245 245 243 240 238 237 233 231 229 227 225 223 223 222 222 226 227 225 226 226 226 229 228 227 228 230 232 232 231 231 229 229 229 227 228 232 234 228 224 223 214 210 209 205 204 205 205 204 202 202 201 201 202
294 291 289 287 286 284 283 282 281 280 278 276 274 273 271 270 269 268 267 266 266 266 264 262 260 257 254 251 246 244 246 247 246 247 247 247 244 242 239 236 234 232 231 229 227 225 223 222 221 220 223 225 223 225 227 225 226 228 226 228 229 230 231 230 229 227 227 226 223 226 230 230 224 222 220 212 209 208 205 205 205 205 204 202 201 201 203 203
296 293 291 288 286 284 283 282 281 280 278 276 274 273 271 270 269 267 266 266 266 265 263 261 258 256 254 251 247 246 249 249 249 249 247 245 243 241 236 234 231 231 230 229 227 223 222 223 220 220 223 224 222 223 225 222 224 227 226 229 228 227 230 227 225 224 224 223 220 221 226 224 218 216 214 210 209 207 205 206 205 204 204 202 201 201 203 203
296 294 293 291 288 285 283 282 281 279 278 276 274 273 271 270 268 267 266 266 266 265 263 260 257 255 253 251 250 250 249 249 248 247 244 241 240 238 234 231 228 228 228 227 226 223 221 222 220 220 222 224 223 221 223 222 223 225 224 226 226 228 228 222 220 220 220 219 215 217 224 220 212 209 209 208 208 207 206 206 205 203 203 202 201 202 203 204
296 294 293 292 290 288 285 282 281 280 278 277 275 273 271 269 268 267 266 266 266 265 262 257 253 252 253 253 251 250 247 245 244 242 239 237 235 234 232 227 225 225 225 225 224 221 219 219 219 220 220 221 222 220 221 223 222 222 222 223 223 225 225 217 217 218 217 215 212 215 220 218 210 206 206 207 207 208 207 205 204 203 202 202 203 204 204 205
296 294 293 291 290 289 287 283 281 280 279 277 275 273 271 269 267 266 266 266 265 262 258 254 250 249 253 254 248 246 244 240 239 237 235 233 231 231 228 224 222 222 222 222 222 219 217 217 218 220 219 219 220 219 221 222 221 219 220 222 220 221 221 218 218 217 215 213 211 213 217 219 213 205 205 206 206 208 208 206 204 203 203 203 204 204 205 205
296 294 293 291 290 289 288 285 282 280 279 278 276 273 270 268 267 266 265 264 262 258 252 251 249 248 251 251 245 244 242 237 236 234 232 231 228 227 225 221 218 219 219 219 219 216 215 216 217 219 219 219 219 218 219 220 220 218 218 222 220 218 219 218 215 214 213 214 212 212 217 221 214 206 206 206 206 208 209 207 205 205 204 204 205 204 205 206
298 296 294 292 291 289 288 286 283 280 279 278 276 273 270 268 266 264 262 259 257 254 251 250 247 247 249 245 243 243 239 236 235 233 232 229 227 224 222 220 216 215 216 217 216 214 213 215 217 219 219 218 217 216 218 219 218 217 216 218 218 217 218 217 215 212 211 213 213 211 215 220 214 208 208 207 207 209 209 208 206 206 205 205 206 205 206 207
300 298 296 294 292 290 288 287 284 281 279 278 275 273 270 267 263 260 257 254 252 251 252 248 240 244 249 242 239 241 238 236 235 232 229 226 224 221 220 220 216 212 214 216 216 213 213 215 217 218 218 217 216 216 218 220 220 219 216 215 217 217 218 217 214 212 210 212 214 212 214 217 214 210 209 207 208 209 209 208 208 207 206 207 207 207 208 208
303 301 299 296 293 291 288 287 285 282 280 277 275 272 268 263 261 259 254 250 250 251 254 250 242 244 249 245 241 239 237 234 231 229 225 222 221 218 217 218 214 213 216 216 215 214 213 216 218 219 219 217 216 216 217 220 221 217 213 215 218 218 217 216 213 211 212 213 214 213 214 215 214 211 209 208 208 209 209 208 209 208 208 208 208 209 209 209
305 303 300 298 295 292 289 286 285 282 279 276 273 270 265 262 261 260 256 253 251 251 252 251 247 245 246 245 243 240 238 233 229 227 224 220 218 216 215 213 212 214 215 214 213 213 214 218 220 218 218 217 215 215 216 218 218 214 214 216 218 218 216 214 212 211 212 215 215 213 213 214 213 211 210 209 208 210 209 208 209 209 209 210 209 210 211 210
306 304 302 299 296 292 289 286 284 282 278 274 269 265 262 261 260 259 259 257 254 251 250 249 248 246 244 242 241 238 236 233 229 227 222 218 216 215 213 212 213 213 212 212 211 212 216 220 220 216 217 217 214 213 213 215 216 217 218 218 218 217 214 212 212 212 211 214 215 212 213 214 212 211 210 209 210 211 210 210 210 209 210 211 211 211 211 210
308 306 303 300 297 294 290 286 283 280 277 271 266 263 260 259 258 258 258 258 257 252 249 246 244 243 240 238 236 232 231 229 228 225 218 216 216 214 213 211 212 211 210 211 211 212 216 219 217 214 214 212 210 209 211 214 217 219 218 217 217 214 212 213 212 211 211 215 217 212 212 214 212 212 212 211 211 211 211 211 211 210 211 211 211 212 212 211
310 308 305 302 299 295 292 288 283 280 276 270 265 262 260 258 256 258 258 257 258 253 246 242 240 239 237 234 230 227 227 225 224 222 216 213 214 213 214 212 210 212 212 211 212 214 217 217 213 210 209 207 207 209 210 214 216 217 217 217 216 212 212 214 209 207 210 215 218 211 210 215 213 212 213 211 211 212 212 212 211 211 212 212 213 214 214 213
312 310 307 304 301 298 295 290 284 280 276 271 266 261 257 256 255 257 258 256 256 250 243 239 237 236 233 229 226 222 224 224 221 220 216 213 212 211 212 211 211 213 212 210 212 216 217 214 208 206 208 209 211 211 211 213 215 216 215 215 216 212 210 211 206 206 210 215 216 211 212 216 213 212 213 211 211 212 212 212 213 212 213 214 215 215 216 216
314 313 310 307 304 301 297 291 285 281 278 271 265 259 254 253 254 255 255 254 253 246 237 234 231 230 226 223 220 218 223 225 219 217 216 212 212 211 211 211 212 214 211 209 213 216 215 210 206 207 209 209 212 213 211 210 213 216 213 212 214 211 208 210 209 209 212 214 213 212 216 217 212 213 213 210 211 212 212 213 214 214 215 216 218 218 219 220
316 315 313 309 306 303 298 292 287 283 278 269 261 255 253 253 251 250 249 250 249 237 228 229 228 224 223 219 214 213 221 219 212 213 213 210 210 210 212 210 210 212 209 207 212 215 212 207 206 207 208 208 210 212 210 208 212 216 209 206 208 207 206 209 210 211 214 215 213 213 216 219 216 214 211 210 211 212 213 215 215 215 216 217 219 221 221 221
316 315 314 312 308 303 298 293 288 282 276 268 258 252 252 251 246 241 240 242 238 227 223 224 222 220 220 215 210 211 216 211 209 211 208 207 207 208 212 210 208 209 207 206 210 211 209 206 204 204 206 208 210 211 208 206 211 213 206 204 207 207 208 209 211 213 215 219 218 213 213 219 220 212 208 210 212 213 214 215 216 217 218 219 221 223 223 223
317 316 315 314 310 305 299 294 288 281 275 263 252 250 248 245 238 231 233 235 227 224 224 217 214 215 213 210 210 212 214 212 212 207 202 205 207 208 211 209 207 207 206 207 208 208 209 208 204 203 206 208 208 208 205 203 208 209 203 204 207 209 210 210 212 213 216 220 220 213 210 216 220 212 208 211 212 214 215 216 217 218 219 221 223 224 224 223
319 317 316 316 314 308 302 295 287 279 272 256 245 247 242 233 226 223 226 225 217 222 222 212 210 211 207 208 210 211 212 211 208 200 199 202 204 206 208 206 205 205 205 207 209 210 208 206 205 205 206 207 205 204 202 203 206 205 202 203 205 208 210 212 213 214 218 221 219 215 211 215 221 218 214 214 215 215 215 216 218 219 221 223 224 225 224 219
321 319 319 319 318 314 306 297 287 277 265 246 235 236 231 221 218 218 218 213 212 221 215 206 205 205 205 208 208 206 208 210 204 197 197 199 201 203 203 201 203 202 203 205 208 209 204 202 204 205 206 204 201 200 201 202 204 203 202 201 201 204 207 210 212 214 219 221 219 216 214 216 221 219 216 216 216 215 216 218 218 220 222 223 225 225 221 219
322 321 320 320 320 318 310 299 288 275 255 231 224 223 218 214 214 215 214 210 210 213 206 201 203 205 209 210 207 202 202 205 201 196 196 198 199 201 201 201 199 198 200 201 202 204 203 203 203 202 204 203 199 198 199 200 202 202 201 199 198 200 202 207 209 212 219 220 218 215 213 217 221 220 219 217 215 214 217 219 220 221 223 223 225 223 219 219
323 322 321 322 323 323 319 307 288 261 228 210 214 214 210 211 210 210 213 209 204 207 209 209 213 216 213 209 205 200 199 201 198 195 196 197 198 200 203 203 200 200 201 198 198 200 200 202 202 201 203 203 202 201 199 200 201 201 200 199 200 201 202 207 209 212 217 217 215 213 213 219 223 222 222 219 215 214 216 219 221 222 224 224 224 220 216 216
324 323 322 322 324 328 331 327 293 207 194 199 208 204 202 205 200 202 210 206 202 210 217 223 226 217 206 203 199 193 195 198 194 193 194 195 198 199 201 201 200 200 200 197 199 200 198 201 202 201 202 202 204 205 202 201 201 202 202 202 205 206 206 209 210 212 214 212 210 209 213 220 221 221 221 218 216 215 217 219 221 222 223 224 221 216 212 213
324 324 325 324 324 330 339 344 230 183 192 201 202 196 198 198 193 199 207 200 200 211 224 230 221 205 196 197 194 190 194 197 191 192 195 196 198 198 198 199 197 198 198 196 199 200 201 204 202 201 203 201 202 205 202 200 202 203 203 205 208 209 209 210 213 213 210 210 210 210 216 220 219 220 220 218 218 217 217 218 219 220 220 222 220 214 212 212
327 327 327 326 324 329 336 334 227 197 200 200 197 198 200 195 189 194 196 190 194 204 219 217 198 190 190 191 188 189 195 195 189 191 195 196 198 197 197 197 196 197 198 195 197 198 201 202 197 199 204 202 201 203 202 201 201 202 204 207 208 209 211 208 208 208 208 212 214 213 218 220 221 223 219 218 219 217 216 216 216 217 217 219 218 213 211 209
331 330 329 327 325 323 309 284 235 209 210 207 204 203 198 192 191 192 183 180 191 197 199 190 183 184 185 184 184 186 190 189 187 190 193 194 197 197 196 197 196 198 198 196 198 198 198 197 195 198 201 201 202 203 203 204 204 203 205 205 203 208 213 209 207 207 209 217 217 214 217 219 221 222 215 214 218 217 217 217 215 214 215 216 215 211 209 207
333 332 331 331 331 328 304 269 242 227 221 214 216 211 198 193 193 189 180 178 188 192 191 184 186 189 182 179 180 181 185 186 186 190 191 192 196 195 194 194 195 197 198 197 198 198 198 197 197 199 199 198 201 203 204 206 208 208 207 204 203 207 210 208 209 210 210 216 217 215 218 219 219 218 212 212 215 215 216 217 215 214 214 214 213 210 206 204
337 334 336 338 336 334 322 275 229 219 216 212 214 205 194 191 187 182 181 185 187 190 189 183 187 193 189 183 179 179 184 185 184 188 190 191 193 192 194 194 192 195 197 197 197 197 198 197 195 197 197 195 199 204 206 205 206 208 208 206 208 210 211 210 211 213 211 214 217 215 217 219 219 217 213 212 212 213 214 214 214 214 213 212 211 208 204 203
342 337 337 340 332 324 322 270 204 206 211 209 204 194 186 182 178 175 179 188 188 188 189 186 189 193 190 185 179 179 184 183 183 186 189 190 189 189 194 194 191 192 193 195 197 195 197 200 195 194 195 197 201 205 206 204 203 205 206 206 206 209 211 211 212 214 214 215 216 215 217 220 219 216 215 213 212 212 212 211 211 211 210 210 208 205 203 202
345 341 339 337 327 302 269 250 216 206 206 198 191 186 179 174 175 175 177 185 188 188 190 193 194 193 188 184 177 177 181 180 181 185 187 188 189 190 193 193 190 189 190 193 195 194 197 200 196 194 197 200 203 204 205 206 205 205 206 206 205 206 208 208 209 212 214 217 217 217 219 217 214 215 216 214 213 211 209 208 208 207 207 206 203 201 201 200
347 346 344 339 327 273 229 238 199 182 184 178 170 172 170 169 173 176 177 184 188 186 185 185 187 187 185 183 179 178 180 178 179 183 184 186 191 192 190 190 190 190 190 191 192 192 196 198 196 197 200 202 203 203 204 207 206 206 208 208 207 208 208 208 209 208 210 215 215 214 215 212 209 214 215 213 212 209 206 206 206 205 203 200 197 197 198 198
348 348 351 353 353 159 156 143 144 145 154 156 154 159 164 166 170 174 178 183 181 175 173 173 178 180 178 179 178 177 177 176 177 180 179 182 188 189 187 188 189 190 192 194 192 190 193 197 198 197 198 201 204 204 206 207 206 207 209 208 209 210 210 211 213 210 209 211 211 212 214 211 210 213 212 210 210 207 204 203 202 201 199 195 192 194 196 197
351 354 7 21 53 116 115 101 116 124 129 135 142 151 159 164 168 173 177 177 172 167 166 168 172 175 176 178 179 177 175 176 177 178 178 179 182 183 184 186 188 190 192 195 193 192 194 197 197 195 195 198 202 203 206 208 208 208 208 208 209 209 208 210 214 213 212 213 213 216 217 212 209 211 209 206 206 204 202 201 199 199 197 194 193 195 196 195
3 18 34 46 71 103 108 98 105 114 116 121 133 144 152 155 159 168 172 169 169 170 168 168 169 172 177 180 179 179 178 177 176 176 177 177 177 179 182 184 187 189 190 193 191 190 195 199 198 199 199 200 202 204 206 206 206 208 208 207 208 207 206 208 211 212 213 213 214 216 216 208 203 206 205 204 204 202 199 198 198 199 199 196 195 196 196 194
27 44 52 61 77 94 104 102 105 114 114 116 125 133 139 142 146 159 161 155 164 172 170 169 170 170 173 173 172 173 174 174 174 175 177 176 173 176 180 182 186 188 187 189 188 189 196 199 200 205 208 207 208 209 206 204 204 206 207 207 207 207 207 208 210 213 214 213 214 215 214 210 203 201 201 202 203 203 199 198 198 199 200 198 196 196 195 194
50 59 62 67 78 89 100 107 111 117 117 114 115 117 129 141 141 143 146 146 156 164 162 164 166 164 162 163 167 169 169 171 173 173 175 174 169 172 177 180 186 186 184 187 189 191 196 197 200 206 209 209 210 208 204 205 206 206 206 206 206 206 207 208 211 213 212 213 215 213 213 214 210 203 202 201 202 203 202 200 198 199 201 200 197 195 194 193
63 67 67 71 80 87 94 103 105 105 108 112 109 108 124 140 133 127 135 144 151 153 152 153 157 161 164 165 166 166 165 166 168 168 170 171 169 169 173 179 185 184 183 187 191 194 198 198 199 203 205 206 208 207 206 206 206 206 206 207 206 206 208 209 211 212 210 211 215 211 211 215 215 211 209 205 202 202 202 200 198 199 201 201 198 194 193 192
65 66 69 76 83 87 90 95 95 92 99 110 110 110 122 132 122 117 127 136 144 148 149 149 149 153 160 164 163 161 160 162 163 164 166 170 169 169 172 178 184 185 186 189 191 195 201 199 197 201 203 205 209 209 208 206 205 205 206 208 208 208 210 211 212 214 214 215 217 213 210 213 215 213 211 207 203 201 199 199 198 198 200 201 198 194 192 191
64 66 71 77 83 88 89 91 90 89 94 104 108 110 115 117 110 111 124 137 144 144 144 146 146 145 150 157 159 156 154 157 159 162 166 169 169 172 175 180 184 185 187 190 191 194 200 199 196 199 201 204 208 208 206 205 205 205 206 207 208 209 210 211 213 215 216 217 219 219 216 213 210 208 207 204 200 199 198 199 199 199 200 200 199 194 192 192
64 67 72 75 80 82 79 79 80 82 88 96 102 103 102 106 108 109 125 141 147 145 142 138 135 142 150 153 152 149 148 153 158 162 167 169 169 174 178 182 185 185 187 191 191 194 199 199 196 199 204 205 203 202 199 199 202 205 207 208 208 209 209 210 212 214 215 216 217 218 219 216 208 205 205 203 201 201 201 201 201 201 200 198 198 195 192 192
59 65 70 73 78 77 71 71 76 80 88 92 92 95 101 109 110 107 121 134 140 145 150 142 130 140 147 145 144 144 146 153 159 162 166 168 169 173 179 185 189 189 189 191 191 193 198 198 195 198 204 203 198 200 198 196 200 206 208 208 208 209 210 210 211 212 213 215 216 216 218 216 208 205 205 205 206 207 205 203 203 202 200 198 198 198 196 194